| time (UTC) | temp F | wind direction | speed MPH | gust MPH | rain 1hr in | rain 24hr in | rain mn in | humidity % | barometer mb |
| 20260506080306 | 34 | 159 | 1.0 | 2.0 | 0.00 | 0.43 | 0.03 | 93 | 1003.3 |
| 20260506073306 | 35 | 203 | 2.0 | 3.0 | 0.00 | 0.52 | 0.03 | 94 | 1003.9 |
| 20260506072807 | 36 | 118 | 1.0 | 3.0 | 0.00 | 0.52 | 0.03 | 94 | 1003.9 |
| 20260506072306 | 35 | 179 | 1.0 | 3.0 | 0.00 | 0.52 | 0.03 | 94 | 1009.1 |
| 20260506071805 | 36 | 124 | 1.0 | 2.0 | 0.00 | 0.52 | 0.03 | 94 | 1003.9 |
| 20260506071306 | 35 | 168 | 1.0 | 3.0 | 0.00 | 0.52 | 0.03 | 80 | 1012.1 |
| 20260506070806 | 34 | 60 | 1.0 | 3.0 | 0.01 | 0.52 | 0.03 | 94 | 1004.0 |
| 20260506070306 | 35 | 176 | 2.0 | 5.0 | 0.01 | 0.52 | 0.03 | 94 | 1004.0 |
| 20260506062306 | 36 | 27 | 1.0 | 2.0 | 0.02 | 0.75 | 0.02 | 93 | 1003.8 |
| 20260506061806 | 35 | 284 | 0.0 | 3.0 | 0.02 | 0.75 | 0.02 | 93 | 1008.7 |
| 20260506061306 | 35 | 174 | 1.0 | 5.0 | 0.02 | 0.75 | 0.02 | 93 | 1003.6 |
| 20260506060805 | 35 | 167 | 2.0 | 5.0 | 0.02 | 0.74 | 0.02 | 93 | 1008.6 |
| 20260506051306 | 35 | 86 | 5.0 | 7.0 | 0.00 | 0.91 | 0.00 | 88 | 1007.2 |
| 20260506050805 | 35 | 75 | 4.0 | 7.0 | 0.00 | 0.91 | 0.00 | 71 | 1003.5 |
| 20260506050306 | 38 | 58 | 3.0 | 5.0 | 0.00 | 0.91 | 0.00 | 88 | 1003.5 |
| 20260506044806 | 38 | 222 | 0.0 | 2.0 | 0.01 | 0.94 | 0.93 | 88 | 1003.4 |
| 20260506044306 | 39 | 189 | 1.0 | 2.0 | 0.00 | 0.94 | 0.93 | 87 | 1010.7 |
| 20260506043806 | 38 | 137 | 0.0 | 8.0 | 0.00 | 0.94 | 0.93 | 86 | 1003.5 |
| 20260506043306 | 38 | 104 | 2.0 | 13.0 | 0.00 | 0.95 | 0.93 | 66 | 1003.3 |
| 20260506042806 | 37 | 44 | 5.0 | 7.0 | 0.00 | 0.96 | 0.93 | 86 | 1003.2 |
| 20260506042306 | 36 | 33 | 2.0 | 9.0 | 0.00 | 0.96 | 0.93 | 86 | 1003.5 |
| 20260506041806 | 38 | 157 | 2.0 | 5.0 | 0.00 | 0.96 | 0.93 | 66 | 1003.5 |
| 20260506041305 | 37 | 48 | 2.0 | 5.0 | 0.00 | 0.96 | 0.93 | 88 | 1003.5 |
| 20260506040313 | 37 | 132 | 1.0 | 3.0 | 0.00 | 0.97 | 0.93 | 88 | 1003.6 |
| 20260506035806 | 39 | 172 | 1.0 | 6.0 | 0.00 | 0.99 | 0.93 | 85 | 1004.8 |
| 20260506035306 | 38 | 79 | 3.0 | 6.0 | 0.00 | 0.99 | 0.93 | 84 | 1003.9 |
| 20260506034806 | 39 | 36 | 3.0 | 8.0 | 0.00 | 0.99 | 0.92 | 83 | 1004.9 |
| 20260506033806 | 39 | 259 | 3.0 | 7.0 | 0.00 | 0.99 | 0.92 | 83 | 1005.0 |
| 20260506033306 | 38 | 227 | 2.0 | 6.0 | 0.00 | 0.99 | 0.92 | 84 | 1004.1 |
| 20260506032806 | 39 | 224 | 5.0 | 6.0 | 0.00 | 1.00 | 0.92 | 56 | 1005.0 |
| 20260506032306 | 38 | 184 | 2.0 | 5.0 | 0.00 | 1.00 | 0.92 | 92 | 1003.9 |
| 20260506030806 | 37 | 140 | 1.0 | 3.0 | 0.00 | 1.01 | 0.92 | 72 | 1003.4 |
| 20260506030306 | 38 | 330 | 2.0 | 3.0 | 0.00 | 1.02 | 0.92 | 92 | 1004.4 |
| 20260506025805 | 37 | 131 | 1.0 | 6.0 | 0.00 | 1.04 | 0.92 | 92 | 1003.4 |
| 20260506025306 | 38 | 215 | 3.0 | 6.0 | 0.01 | 1.04 | 0.92 | 92 | 1004.1 |
| 20260506024805 | 37 | 161 | 1.0 | 2.0 | 0.01 | 1.04 | 0.92 | 91 | 1003.6 |
| 20260506024306 | 39 | 47 | 0.0 | 3.0 | 0.01 | 1.04 | 0.92 | 91 | 1004.4 |
| 20260506023805 | 37 | 177 | 1.0 | 3.0 | 0.01 | 1.04 | 0.92 | 91 | 1003.5 |
| 20260506023305 | 39 | 12 | 1.0 | 2.0 | 0.01 | 1.05 | 0.92 | 91 | 1004.5 |
| 20260506022806 | 37 | 147 | 0.0 | 2.0 | 0.01 | 1.06 | 0.92 | 91 | 1003.3 |
| 20260506022306 | 39 | 321 | 2.0 | 5.0 | 0.02 | 1.06 | 0.92 | 91 | 1004.0 |
| 20260506021806 | 37 | 307 | 1.0 | 7.0 | 0.02 | 1.08 | 0.92 | 91 | 1002.8 |
| 20260506021306 | 38 | 143 | 4.0 | 7.0 | 0.02 | 1.08 | 0.92 | 55 | 1003.7 |
| 20260506020805 | 37 | 200 | 2.0 | 3.0 | 0.02 | 1.09 | 0.92 | 89 | 1002.7 |
| 20260506020305 | 38 | 4 | 1.0 | 3.0 | 0.02 | 1.10 | 0.92 | 89 | 1003.6 |
| 20260506015805 | 37 | 222 | 2.0 | 7.0 | 0.02 | 1.12 | 0.92 | 89 | 1004.1 |
| 20260506015306 | 51 | 216 | 4.0 | 7.0 | 0.02 | 1.12 | 0.92 | 89 | 1002.9 |
| 20260506014805 | 37 | 291 | 1.0 | 3.0 | 0.02 | 1.14 | 0.92 | 90 | 1003.7 |
| 20260506013805 | 37 | 95 | 2.0 | 5.0 | 0.02 | 1.20 | 0.91 | 50 | 1003.5 |
| 20260506013305 | 37 | 200 | 1.0 | 13.0 | 0.02 | 1.24 | 0.91 | 86 | 1002.5 |
| 20260506012805 | 37 | 65 | 8.0 | 14.0 | 0.02 | 1.29 | 0.91 | 85 | 1003.3 |
| 20260506012308 | 39 | 43 | 3.0 | 14.0 | 0.02 | 1.30 | 0.90 | 84 | 1002.4 |
| 20260506010805 | 41 | 231 | 2.0 | 5.0 | 0.02 | 1.32 | 0.90 | 85 | 1003.1 |
| 20260506010305 | 39 | 193 | 3.0 | 5.0 | 0.02 | 1.32 | 0.90 | 83 | 1002.1 |
| 20260506005805 | 41 | 210 | 2.0 | 8.0 | 0.02 | 1.33 | 0.90 | 81 | 1003.0 |
| 20260506005306 | 39 | 231 | 3.0 | 8.0 | 0.02 | 1.33 | 0.90 | 82 | 1002.2 |
| 20260506004805 | 42 | 191 | 0.0 | 5.0 | 0.02 | 1.33 | 0.90 | 84 | 1003.1 |
| 20260506004305 | 40 | 173 | 2.0 | 8.0 | 0.02 | 1.33 | 0.90 | 81 | 1002.3 |
| 20260506003805 | 42 | 211 | 5.0 | 8.0 | 0.01 | 1.32 | 0.89 | 75 | 1003.1 |
| 20260506002306 | 42 | 162 | 4.0 | 9.0 | 0.00 | 1.31 | 0.88 | 72 | 1002.1 |
| 20260506001805 | 44 | 140 | 2.0 | 6.0 | 0.00 | 1.31 | 0.88 | 69 | 1003.1 |
| 20260506001305 | 42 | 321 | 3.0 | 10.0 | 0.00 | 1.31 | 0.88 | 68 | 1002.0 |
| 20260506000805 | 44 | 170 | 4.0 | 13.0 | 0.00 | 1.31 | 0.88 | 68 | 1002.9 |
| 20260505235805 | 45 | 194 | 5.0 | 12.0 | 0.00 | 1.31 | 0.88 | 47 | 1003.1 |
| 20260505235305 | 44 | 182 | 5.0 | 13.0 | 0.01 | 1.31 | 0.88 | 68 | 1002.0 |
| 20260505234806 | 42 | 150 | 6.0 | 13.0 | 0.01 | 1.31 | 0.88 | 70 | 1001.5 |
| 20260505234306 | 43 | 156 | 5.0 | 12.0 | 0.01 | 1.31 | 0.88 | 70 | 1002.0 |
| 20260505233804 | 45 | 208 | 3.0 | 24.0 | 0.01 | 1.31 | 0.88 | 41 | 1002.9 |
| 20260505233305 | 42 | 70 | 9.0 | 24.0 | 0.02 | 1.31 | 0.88 | 69 | 1001.9 |
| 20260505232805 | 44 | 92 | 5.0 | 16.0 | 0.02 | 1.31 | 0.88 | 40 | 1002.6 |
| 20260505232306 | 43 | 84 | 5.0 | 15.0 | 0.02 | 1.31 | 0.88 | 68 | 1001.5 |
| 20260505231805 | 44 | 79 | 10.0 | 16.0 | 0.02 | 1.31 | 0.88 | 68 | 1002.3 |
| 20260505231305 | 45 | 69 | 7.0 | 17.0 | 0.02 | 1.31 | 0.88 | 42 | 1002.9 |
| 20260505230805 | 43 | 58 | 7.0 | 17.0 | 0.02 | 1.31 | 0.88 | 69 | 1002.0 |
| 20260505230305 | 45 | 50 | 4.0 | 10.0 | 0.02 | 1.31 | 0.88 | 72 | 1002.7 |
| 20260505225805 | 43 | 57 | 5.0 | 9.0 | 0.01 | 1.31 | 0.88 | 69 | 1002.0 |
| 20260505225306 | 45 | 50 | 3.0 | 12.0 | 0.01 | 1.30 | 0.87 | 71 | 1002.7 |
| 20260505224805 | 43 | 79 | 4.0 | 12.0 | 0.01 | 1.30 | 0.87 | 70 | 1002.0 |
| 20260505224304 | 44 | 194 | 2.0 | 13.0 | 0.00 | 1.30 | 0.87 | 72 | 1002.8 |
| 20260505223805 | 41 | 80 | 3.0 | 12.0 | 0.00 | 1.30 | 0.87 | 73 | 1001.6 |
| 20260505223305 | 42 | 71 | 7.0 | 17.0 | 0.00 | 1.30 | 0.86 | 44 | 1002.1 |
| 20260505222805 | 44 | 92 | 9.0 | 17.0 | 0.00 | 1.30 | 0.86 | 73 | 1003.0 |
| 20260505222306 | 42 | 332 | 6.0 | 20.0 | 0.00 | 1.30 | 0.86 | 44 | 1001.9 |
| 20260505221804 | 44 | 37 | 6.0 | 18.0 | 0.00 | 1.30 | 0.86 | 75 | 1002.4 |
| 20260505221305 | 45 | 45 | 5.0 | 17.0 | 0.01 | 1.30 | 0.86 | 51 | 1002.8 |
| 20260505220805 | 43 | 55 | 13.0 | 21.0 | 0.01 | 1.30 | 0.86 | 76 | 1002.3 |
| 20260505220305 | 42 | 72 | 14.0 | 22.0 | 0.02 | 1.30 | 0.86 | 59 | 1001.5 |
| 20260505215804 | 55 | 63 | 7.0 | 15.0 | 0.02 | 1.31 | 0.86 | 73 | 1002.6 |
| 20260505215305 | 44 | 44 | 9.0 | 13.0 | 0.02 | 1.32 | 0.86 | 71 | 1001.7 |
| 20260505214305 | 45 | 60 | 6.0 | 14.0 | 0.02 | 1.32 | 0.86 | 71 | 1001.7 |
| 20260505213805 | 47 | 59 | 6.0 | 12.0 | 0.02 | 1.32 | 0.86 | 71 | 1002.9 |
| 20260505213304 | 42 | 63 | 6.0 | 9.0 | 0.02 | 1.32 | 0.86 | 71 | 1002.0 |
| 20260505212805 | 54 | 94 | 5.0 | 8.0 | 0.02 | 1.32 | 0.86 | 74 | 1002.7 |
| 20260505212306 | 41 | 72 | 6.0 | 8.0 | 0.01 | 1.31 | 0.86 | 75 | 1002.1 |
| 20260505210805 | 41 | 332 | 3.0 | 15.0 | 0.01 | 1.31 | 0.86 | 62 | 1001.9 |
| 20260505210304 | 43 | 255 | 7.0 | 24.0 | 0.00 | 1.30 | 0.85 | 73 | 1002.7 |
| 20260505205805 | 44 | 235 | 9.0 | 25.0 | 0.00 | 1.35 | 0.85 | 65 | 1001.8 |
| 20260505205305 | 59 | 146 | 11.0 | 24.0 | 0.00 | 1.35 | 0.85 | 32 | 1001.8 |
| 20260505204805 | 60 | 253 | 3.0 | 13.0 | 0.00 | 1.35 | 0.85 | 49 | 1000.9 |
| 20260505203805 | 59 | 150 | 5.0 | 13.0 | 0.00 | 1.35 | 0.85 | 49 | 1000.9 |
| 20260505203305 | 59 | 177 | 6.0 | 18.0 | 0.00 | 1.35 | 0.85 | 33 | 1002.0 |
| 20260505202805 | 60 | 110 | 6.0 | 14.0 | 0.00 | 1.35 | 0.85 | 45 | 1001.2 |
| 20260505202306 | 59 | 247 | 3.0 | 14.0 | 0.00 | 1.35 | 0.85 | 30 | 1000.4 |
| 20260505201805 | 59 | 182 | 5.0 | 21.0 | 0.00 | 1.35 | 0.85 | 48 | 1001.5 |
| 20260505201305 | 60 | 168 | 3.0 | 13.0 | 0.00 | 1.35 | 0.85 | 31 | 1000.8 |
| 20260505200804 | 60 | 158 | 5.0 | 9.0 | 0.00 | 1.35 | 0.85 | 48 | 1001.9 |
| 20260505200304 | 59 | 152 | 5.0 | 8.0 | 0.00 | 1.35 | 0.85 | 48 | 1001.2 |
| 20260505195805 | 60 | 178 | 2.0 | 10.0 | 0.00 | 1.39 | 0.85 | 48 | 1000.6 |
| 20260505195305 | 59 | 179 | 5.0 | 14.0 | 0.00 | 1.39 | 0.85 | 48 | 1001.3 |
| 20260505194805 | 52 | 152 | 12.0 | 14.0 | 0.00 | 1.39 | 0.85 | 48 | 1000.3 |
| 20260505194305 | 59 | 172 | 9.0 | 16.0 | 0.00 | 1.39 | 0.85 | 49 | 1001.4 |
| 20260505193805 | 60 | 150 | 9.0 | 20.0 | 0.00 | 1.39 | 0.85 | 48 | 1001.0 |
| 20260505193305 | 59 | 164 | 6.0 | 16.0 | 0.00 | 1.39 | 0.85 | 49 | 1002.2 |
| 20260505192805 | 59 | 184 | 6.0 | 12.0 | 0.00 | 1.39 | 0.85 | 48 | 1001.5 |
| 20260505192306 | 59 | 162 | 5.0 | 16.0 | 0.00 | 1.39 | 0.85 | 49 | 1001.1 |
| 20260505191805 | 59 | 188 | 6.0 | 16.0 | 0.00 | 1.40 | 0.85 | 50 | 1002.1 |
| 20260505190805 | 60 | 138 | 7.0 | 23.0 | 0.00 | 1.40 | 0.85 | 49 | 1001.9 |
| 20260505190305 | 59 | 194 | 12.0 | 23.0 | 0.00 | 1.40 | 0.85 | 50 | 1002.9 |
| 20260505185805 | 56 | 135 | 3.0 | 21.0 | 0.00 | 1.40 | 0.85 | 48 | 1004.0 |
| 20260505184805 | 56 | 280 | 5.0 | 17.0 | 0.00 | 1.40 | 0.85 | 47 | 1002.6 |
| 20260505184305 | 56 | 69 | 2.0 | 14.0 | 0.00 | 1.40 | 0.85 | 50 | 1001.7 |
| 20260505183805 | 56 | 150 | 5.0 | 12.0 | 0.00 | 1.40 | 0.85 | 54 | 1002.6 |
| 20260505183304 | 55 | 118 | 3.0 | 8.0 | 0.00 | 1.40 | 0.85 | 52 | 1001.6 |
| 20260505182805 | 56 | 215 | 2.0 | 9.0 | 0.00 | 1.40 | 0.85 | 50 | 1002.6 |
| 20260505182306 | 55 | 168 | 3.0 | 12.0 | 0.00 | 1.40 | 0.85 | 53 | 1001.8 |
| 20260505181805 | 55 | 18 | 4.0 | 10.0 | 0.00 | 1.40 | 0.85 | 52 | 1002.8 |
| 20260505181304 | 55 | 60 | 5.0 | 14.0 | 0.00 | 1.40 | 0.85 | 51 | 1001.8 |
| 20260505180305 | 55 | 296 | 4.0 | 10.0 | 0.00 | 1.40 | 0.85 | 57 | 1002.0 |
| 20260505175805 | 52 | 97 | 2.0 | 10.0 | 0.00 | 1.40 | 0.85 | 52 | 1001.6 |
| 20260505175305 | 52 | 167 | 7.0 | 16.0 | 0.01 | 1.40 | 0.85 | 54 | 1005.9 |
| 20260505174304 | 52 | 169 | 4.0 | 17.0 | 0.02 | 1.40 | 0.85 | 54 | 1001.8 |
| 20260505173804 | 52 | 158 | 7.0 | 20.0 | 0.03 | 1.40 | 0.85 | 54 | 1001.7 |
| 20260505173305 | 51 | 154 | 6.0 | 12.0 | 0.04 | 1.40 | 0.85 | 53 | 1001.9 |
| 20260505172805 | 52 | 115 | 4.0 | 13.0 | 0.05 | 1.40 | 0.85 | 54 | 1003.1 |
| 20260505172306 | 52 | 104 | 1.0 | 12.0 | 0.06 | 1.40 | 0.85 | 54 | 1002.1 |
| 20260505171804 | 52 | 77 | 5.0 | 13.0 | 0.06 | 1.40 | 0.85 | 57 | 1002.0 |
| 20260505171304 | 52 | 232 | 2.0 | 14.0 | 0.08 | 1.40 | 0.85 | 59 | 1004.3 |
| 20260505170804 | 52 | 124 | 4.0 | 12.0 | 0.10 | 1.40 | 0.85 | 58 | 1003.2 |
| 20260505170305 | 52 | 171 | 4.0 | 14.0 | 0.11 | 1.40 | 0.85 | 58 | 1004.0 |
| 20260505165804 | 49 | 31 | 2.0 | 14.0 | 0.13 | 1.40 | 0.85 | 59 | 1006.9 |
| 20260505165306 | 49 | 154 | 2.0 | 12.0 | 0.15 | 1.40 | 0.84 | 64 | 1002.4 |
| 20260505164805 | 47 | 175 | 5.0 | 14.0 | 0.16 | 1.40 | 0.84 | 58 | 1002.5 |
| 20260505164305 | 49 | 182 | 4.0 | 9.0 | 0.17 | 1.39 | 0.83 | 65 | 1002.8 |
| 20260505163804 | 48 | 193 | 3.0 | 8.0 | 0.18 | 1.38 | 0.82 | 67 | 1002.6 |
| 20260505163305 | 47 | 41 | 2.0 | 8.0 | 0.18 | 1.37 | 0.81 | 65 | 1002.6 |
| 20260505162805 | 48 | 158 | 2.0 | 8.0 | 0.18 | 1.36 | 0.80 | 73 | 1002.8 |
| 20260505162306 | 48 | 172 | 3.0 | 9.0 | 0.18 | 1.35 | 0.79 | 75 | 1002.8 |
| 20260505161805 | 46 | 140 | 3.0 | 9.0 | 0.18 | 1.34 | 0.78 | 76 | 1002.7 |
| 20260505160805 | 46 | 168 | 4.0 | 7.0 | 0.16 | 1.31 | 0.75 | 79 | 1003.0 |
| 20260505160304 | 46 | 170 | 3.0 | 5.0 | 0.15 | 1.30 | 0.74 | 79 | 1003.0 |
| 20260505153305 | 42 | 86 | 3.0 | 3.0 | 0.05 | 1.19 | 0.63 | 89 | 1003.0 |
| 20260505152805 | 42 | 179 | 1.0 | 3.0 | 0.04 | 1.18 | 0.62 | 84 | 1003.3 |
| 20260505152305 | 41 | 101 | 1.0 | 5.0 | 0.03 | 1.18 | 0.62 | 85 | 1003.1 |
| 20260505151805 | 40 | 140 | 2.0 | 5.0 | 0.02 | 1.17 | 0.61 | 88 | 1003.2 |
| 20260505151305 | 40 | 185 | 2.0 | 6.0 | 0.02 | 1.16 | 0.60 | 88 | 1003.3 |
| 20260505150805 | 40 | 160 | 2.0 | 6.0 | 0.01 | 1.15 | 0.59 | 89 | 1003.5 |
| 20260505150305 | 39 | 127 | 2.0 | 6.0 | 0.00 | 1.15 | 0.59 | 90 | 1003.1 |
| 20260505130304 | 34 | 111 | 1.0 | 3.0 | 0.01 | 1.14 | 0.58 | 98 | 1003.8 |
| 20260505124304 | 34 | 55 | 2.0 | 5.0 | 0.00 | 1.14 | 0.58 | 97 | 1003.8 |
| 20260505123804 | 34 | 45 | 2.0 | 6.0 | 0.00 | 1.14 | 0.58 | 97 | 1011.8 |
| 20260505123305 | 33 | 47 | 4.0 | 6.0 | 0.00 | 1.14 | 0.58 | 97 | 1003.7 |
| 20260505122805 | 35 | 67 | 4.0 | 5.0 | 0.00 | 1.14 | 0.58 | 96 | 1012.5 |
| 20260505122305 | 33 | 28 | 3.0 | 5.0 | 0.01 | 1.14 | 0.58 | 97 | 1003.9 |
| 20260505120804 | 34 | 49 | 2.0 | 5.0 | 0.00 | 1.13 | 0.57 | 97 | 1003.8 |
| 20260505120304 | 33 | 61 | 4.0 | 5.0 | 0.00 | 1.13 | 0.57 | 97 | 1003.8 |
| 20260505115803 | 34 | 24 | 1.0 | 3.0 | 0.00 | 1.13 | 0.57 | 96 | 1003.9 |
| 20260505115305 | 33 | 73 | 2.0 | 2.0 | 0.01 | 1.13 | 0.57 | 97 | 1009.8 |
| 20260505114804 | 34 | 127 | 1.0 | 1.0 | 0.01 | 1.13 | 0.57 | 97 | 1004.0 |
| 20260505114304 | 33 | 124 | 1.0 | 1.0 | 0.01 | 1.13 | 0.57 | 97 | 1012.0 |
| 20260505113805 | 34 | 153 | 0.0 | 2.0 | 0.01 | 1.13 | 0.57 | 97 | 1003.9 |
| 20260505113305 | 33 | 81 | 2.0 | 2.0 | 0.01 | 1.13 | 0.57 | 97 | 1004.0 |
| 20260505112305 | 34 | 66 | 1.0 | 2.0 | 0.01 | 1.13 | 0.57 | 97 | 1008.0 |
| 20260505111804 | 34 | 70 | 0.0 | 2.0 | 0.01 | 1.13 | 0.57 | 96 | 1004.2 |
| 20260505111304 | 33 | 55 | 2.0 | 2.0 | 0.01 | 1.13 | 0.57 | 97 | 1008.6 |
| 20260505110804 | 34 | 56 | 1.0 | 2.0 | 0.01 | 1.13 | 0.57 | 97 | 1004.0 |
| 20260505101804 | 35 | 182 | 0.0 | 5.0 | 0.02 | 1.12 | 0.56 | 97 | 1008.9 |
| 20260505101304 | 34 | 71 | 3.0 | 5.0 | 0.02 | 1.12 | 0.56 | 97 | 1004.2 |
| 20260505100803 | 35 | 53 | 2.0 | 3.0 | 0.02 | 1.12 | 0.56 | 95 | 1004.5 |
| 20260505100305 | 33 | 70 | 2.0 | 5.0 | 0.02 | 1.12 | 0.56 | 97 | 1004.3 |
| 20260505095804 | 34 | 56 | 3.0 | 5.0 | 0.03 | 1.12 | 0.56 | 96 | 1004.3 |
| 20260505095305 | 33 | 30 | 3.0 | 5.0 | 0.02 | 1.11 | 0.55 | 97 | 1004.2 |
| 20260505094306 | 34 | 55 | 2.0 | 5.0 | 0.02 | 1.11 | 0.55 | 95 | 1004.6 |
| 20260505093807 | 33 | 42 | 2.0 | 3.0 | 0.01 | 1.10 | 0.54 | 97 | 1004.6 |
| 20260505092306 | 33 | 76 | 3.0 | 6.0 | 0.01 | 1.10 | 0.54 | 96 | 1004.7 |
| 20260505091806 | 34 | 65 | 2.0 | 5.0 | 0.01 | 1.10 | 0.54 | 95 | 1004.8 |
| 20260505091305 | 33 | 50 | 3.0 | 6.0 | 0.01 | 1.10 | 0.54 | 97 | 1005.0 |
| 20260505090806 | 33 | 40 | 1.0 | 2.0 | 0.01 | 1.10 | 0.54 | 96 | 1010.7 |
| 20260505090306 | 34 | 28 | 1.0 | 3.0 | 0.01 | 1.10 | 0.54 | 95 | 1005.1 |
| 20260505085806 | 33 | 78 | 2.0 | 3.0 | 0.09 | 1.09 | 0.53 | 97 | 1013.5 |
| 20260505085306 | 34 | 67 | 1.0 | 2.0 | 0.09 | 1.09 | 0.53 | 96 | 1005.3 |
| 20260505084807 | 33 | 113 | 1.0 | 2.0 | 0.09 | 1.09 | 0.53 | 96 | 1005.4 |
| 20260505084307 | 34 | 79 | 1.0 | 3.0 | 0.09 | 1.09 | 0.53 | 96 | 1005.5 |
| 20260505083806 | 32 | 74 | 1.0 | 3.0 | 0.09 | 1.09 | 0.53 | 96 | 1014.0 |
| 20260505083307 | 33 | 42 | 2.0 | 3.0 | 0.09 | 1.09 | 0.53 | 96 | 1005.3 |
| 20260505082306 | 32 | 46 | 0.0 | 3.0 | 0.09 | 1.09 | 0.53 | 96 | 1005.6 |
| 20260505081806 | 32 | 51 | 1.0 | 2.0 | 0.09 | 1.09 | 0.53 | 96 | 1013.7 |
| 20260505081306 | 33 | 120 | 0.0 | 1.0 | 0.09 | 1.09 | 0.53 | 96 | 1005.6 |
| 20260505080806 | 32 | 66 | 1.0 | 3.0 | 0.09 | 1.09 | 0.53 | 96 | 1005.7 |